www.pogodaiklimat.ru

Погода и климат >> Архив погоды >> Канада >> Baker Lake Climate


ПОГОДА в Baker Lake Climate

  • Прогноз погоды в Baker Lake Climate
  • Монитор погоды в Baker Lake Climate
  • Климат города

АРХИВ ПОГОДЫ в Baker Lake Climate

Время (UTC), дата Ветер
(напр.,м/с)
 
Видим.   Явления Облачность Т
(С)
Тd
(С)
f
(%)
Тe
(С)
Тes
(С)
Комфортность P
(гПа)
Po
(гПа)
Тmin
(С)
Tmax
(С)
R
(мм)
R24
(мм)
S
(см)
03 16.07 С 4 н/о н/о +14.5 +5.3 54 +13 +13 1013.8 1007.4
06 16.07 С 7 н/о н/о +10.6 +5.0 68 +7 +7 1013.9 1007.6 +6.7 +18.8 20
09 16.07 С 7 н/о н/о +9.4 +4.8 73 +6 +6 1014.2 1007.8
12 16.07 С 4 н/о н/о +12.4 +6.0 65 +11 +11 1014.7 1008.4 +8.3 +18.8
15 16.07 СЗ 3 н/о н/о +16.3 +6.2 51 +16 +16 1014.5 1008.1
18 16.07 С 3 н/о н/о +19.3 +4.3 37 +20 +20 1013.3 1006.9 +8.3 +19.7
21 16.07 З 3 н/о н/о +19.7 +3.8 35 +21 +21 комфорт 1012.6 1006.3
00 17.07 Ю 1 н/о н/о +18.6 +3.9 38 +20 +20 1012.0 1005.6 +8.3 +21.7
03 17.07 ЮВ 3 н/о н/о +16.1 +2.8 41 +16 +16 1011.4 1005.1
06 17.07 В 2 н/о н/о +12.8 +4.1 55 +13 +13 1011.0 1004.7 +8.3 +21.7
09 17.07 В 3 н/о н/о +10.1 +4.8 70 +8 +8 1010.4 1004.1
12 17.07 В 4 н/о н/о +13.6 +6.9 64 +12 +12 1009.4 1003.0 +8.8 +21.7
15 17.07 В 6 н/о н/о +17.7 +7.7 52 +17 +17 1007.8 1001.5
18 17.07 ЮВ 7 н/о н/о +18.6 +5.9 43 +18 +18 1005.9 999.6 +8.8 +19.8
21 17.07 ЮВ 9 н/о н/о +20.1 +5.6 39 +20 +20 1004.2 997.9
00 18.07 ЮВ 5 н/о н/о +16.3 +6.0 50 +16 +16 1003.6 997.3 +8.8 +23.1
03 18.07 ЮВ 4 н/о н/о +12.9 +9.1 78 +11 +11 1002.9 996.7
06 18.07 В 7 н/о {осадки} н/о +12.3 +10.7 90 +9 +9 1002.6 996.3 +8.8 +23.1 2 21
09 18.07 В 11 н/о {осадки} н/о +10.8 +9.6 92 +6 +6 1002.1 995.9 2
12 18.07 В 10 н/о {осадки} н/о +11.4 +9.4 88 +7 +7 1002.7 996.4 +10.6 +23.1 2
15 18.07 В 10 н/о н/о +9.8 +8.6 92 +5 +5 1004.2 997.8 0.2
18 18.07 В 10 н/о {осадки} н/о +11.2 +9.1 87 +7 +7 1006.6 1000.3 +9.5 +12.8 1
21 18.07 В 8 н/о н/о +12.8 +8.8 77 +10 +10 1008.8 1002.5
00 19.07 В 5 н/о н/о +13.4 +5.7 60 +12 +12 1010.7 1004.3 +9.5 +13.7
03 19.07 С 2 н/о н/о +10.2 +5.4 72 +9 +9 1012.1 1005.7
06 19.07 С 5 н/о н/о +8.8 +5.9 82 +5 +5 1013.1 1006.6 +8.6 +14.2 15
09 19.07 СЗ 2 н/о н/о +8.2 +4.4 77 +7 +7 1013.8 1007.4
12 19.07 СЗ 3 н/о н/о +11.2 +7.4 77 +9 +9 1014.0 1007.7 +6.8 +14.2
15 19.07 С 4 н/о н/о +17.2 +6.7 50 +17 +17 1014.5 1008.1
18 19.07 Ю 3 н/о н/о +14.1 +7.9 66 +13 +13 1015.5 1009.1 +6.8 +18.2
21 19.07 Ю 3 н/о н/о +16.4 +6.8 53 +16 +16 1016.0 1009.6
00 20.07 С 9 н/о н/о +19.6 +9.5 52 +20 +20 1016.5 1010.1 +6.8 +21.1
03 20.07 С 7 н/о н/о +15.1 +8.5 65 +13 +13 1017.5 1011.1
06 20.07 С 7 н/о н/о +10.9 +7.6 80 +8 +8 1018.7 1012.3 +6.8 +21.1 0
09 20.07 С 8 н/о н/о +9.1 +5.9 80 +5 +5 1019.4 1013.0
12 20.07 С 6 н/о н/о +10.7 +5.7 71 +8 +8 1020.6 1014.2 +8.6 +21.1
15 20.07 СЗ 6 н/о н/о +13.6 +6.3 61 +12 +12 1020.9 1014.5
18 20.07 СЗ 4 н/о н/о +16.9 +5.6 47 +16 +16 1020.3 1013.9 +8.6 +17.2
21 20.07 З 4 н/о н/о +19.9 +5.6 39 +21 +21 комфорт 1020.0 1013.6
00 21.07 Ю 3 н/о н/о +18.3 +7.9 51 +19 +19 1019.1 1012.7 +8.6 +21.6
03 21.07 СЗ 4 н/о н/о +16.6 +11.0 69 +16 +16 1019.7 1013.3
06 21.07 СЗ 5 н/о н/о +15.0 +11.6 80 +14 +14 1020.2 1013.8 +8.6 +21.6 11
09 21.07 С 8 н/о н/о +13.2 +11.3 88 +10 +10 1021.1 1014.7
12 21.07 С 8 н/о н/о +11.8 +9.0 83 +9 +9 1023.4 1017.0 +11.5 +21.6
15 21.07 С 6 н/о н/о +13.3 +7.9 70 +11 +11 1024.4 1018.0 0.2
18 21.07 С 3 н/о {осадки} н/о +16.2 +5.6 49 +16 +16 1024.3 1017.9 +11.5 +16.4 0.2
21 21.07 Ю 3 н/о н/о +17.3 +6.7 50 +17 +17 1024.2 1017.7
00 22.07 ЮВ 3 н/о н/о +18.0 +6.4 47 +18 +18 1023.8 1017.3 +11.5 +18.6
03 22.07 В 4 н/о н/о +16.4 +6.7 53 +16 +16 1022.9 1016.5
06 22.07 В 5 н/о н/о +13.3 +9.1 76 +11 +11 1021.9 1015.5 +11.5 +18.6 9
09 22.07 ЮВ 4 н/о н/о +12.8 +8.7 76 +11 +11 1021.2 1014.8
12 22.07 Ю 1 н/о н/о +12.1 +9.1 82 +13 +13 1020.7 1014.3 +11.2 +18.6
15 22.07 С 3 н/о н/о +15.5 +12.8 84 +15 +15 1020.2 1013.8 0.3
18 22.07 н/о {осадки} н/о +17.4 +11.9 70 1020.5 1014.1 +10.5 +17.9 0.3
21 22.07 С 7 н/о н/о +15.4 +9.2 67 +14 +14 1021.3 1014.8
00 23.07 С 5 н/о н/о +14.4 +3.4 48 +13 +13 1022.4 1016.0 +10.5 +17.9

 

Местоположение метеостанции Baker Lake Climate (Канада): широта 64.32 долгота -96.00 высота над уровнем моря 51 м.

В архиве по умолчанию представлена погода в Baker Lake Climate за последнюю неделю. Архивные данные за месяц целиком и за предыдущие месяцы, начиная с января 2011 года, Вы можете получить, выбрав интересующий диапазон дат из раскрывающегося списка и нажав кнопку "Ввод!".


*Определитесь, кто Вы:
робот инопланетянин человек

Внимание! Время в таблицах - всемирное. Для получения местного времени необходимо прибавить поправку, которая в Baker Lake Climate равна -6 ч.

Смотрите также архив погоды в соседних городах и на ближайших метеорологических станциях:

Погода в Baker Lake Airport (Канада) (4 км)
Погода в Back River MAPS (Канада) (197 км)
Погода в Rankin Inlet (Канада) (255 км)
Погода в Dubawnt Lake (Канада) (305 км)
Погода в Robertson Lake (Канада) (316 км)
Погода в Wager Bay (Канада) (353 км)
Погода в Arviat Climate (Канада) (372 км)
Погода в Arviat (Канада) (372 км)
Погода в Arviat Airport (Канада) (372 км)
Погода в Hanbury River ARS (Канада) (454 км)

Пояснения к столбцам:

Ветер - указаны скорость ветра в м/с - средняя за 10 мин, порывы в срок и между сроками (в фигурных скобках) и направление, откуда дует ветер: С - северный, СВ - северо-восточный, В - восточный, ЮВ - юго-восточный, Ю - южный, ЮЗ - юго-западный, З - западный, СЗ - северо-западный.
Видимость - горизонтальная дальность видимости в метрах или километрах. При видимости от 1 до 10 км при отсутствии осадков обычно наблюдается дымка, при ухудшении видимости до 1 км и менее - туман. В сухую погоду видимость может ухудшаться дымом, пылью или мглою.
Явления - указаны атмосферные явления, наблюдавшиеся в срок или в последний час перед сроком; фигурными скобками обозначены явления, наблюдавшиеся между сроками (за 1-3 часа до срока); квадратными скобками обозначены град или гололедные отложения с указанием их диаметра в мм.
Облачность - указаны через наклонную черту общая и нижняя облачность в баллах и высота нижней границы облаков в метрах; квадратными скобками обозначены формы облаков: Ci - перистые, Cs - перисто-слоистые, Cc - перисто-кучевые, Ac - высококучевые, As - высокослоистые, Sc - слоисто-кучевые, Ns - слоисто-дождевые, Cu - кучевые, Cb - кучево-дождевые. Подробнее классификацию облаков см. в Атласе облаков (PDF).
T - Температура воздуха - температура, измеренная на высоте 2 м над землей.
Td - Температура точки росы - температура, при понижении до которой содержащийся в воздухе водяной пар достигнет насыщения.
f - Относительная влажность воздуха - влажноcть воздуха, измеренная на высоте 2 м над землей.
Te - Эффективная температура - температура, которую ощущает одетый по сезону человек в тени. Характеристика душности погоды. При расчете учитывается влияние влажности воздуха и скорости ветра на теплоощущения человека.
Tes - Эффективная температура на солнце - температура, которую ощущает человек, с поправкой на солнечный нагрев. Характеристика знойности погоды. Зависит от высоты солнца над горизонтом, облачности и скорости ветра. Ночью, в пасмурную погоду, а также при ветре 12 м/с и более поправка равна нулю.
P - Атмосферное давление - приведенное к уровню моря атмосферное давление.
Po - Атмосферное давление - измеренное на уровне метеостанции атмосферное давление.
Tmin - Минимальная температура - минимум температуры воздуха на высоте 2 м над землей.
Tmax - Максимальная температура - максимум температуры воздуха на высоте 2 м над землей.
R - Количество осадков - Количество выпавших осадков за период времени, мм. При наведении курсора мыши на число - период времени, за который выпало указанное количество осадков.
R24 - Количество осадков - Количество выпавших осадков за 24 часа, мм.
S - Снежный покров - Высота снежного покрова, см. При наведении курсора мыши на число - состояние снежного покрова и степень покрытия местности в баллах.